User: anonymous
Location: Albany
(35.0000°S, 118.0000°E)
Time: 07:15:43
(UTC-04:00)
Language:

Atlas Centaur 2 - Orbit

View from above orbital plane
View from above orbital plane
View from above satellite
View from above satellite

Ground track
Ground track

The orbit data is extracted from the following two-line orbital elements,

1 00694U 63047A   14243.77425523  .00002669  00000-0  34338-3 0  5799
2 00694 030.3604 012.0487 0597535 189.4374 322.7471 13.99706705539481
Epoch (UTC): 31 August 2014 18:34:55
Eccentricity: 0.0597535
inclination: 30.3604°
perigee height: 460 km
apogee height: 1329 km
right ascension of ascending node: 12.0487°
argument of perigee: 189.4374°
revolutions per day: 13.99706705
mean anomaly at epoch: 322.7471°
orbit number at epoch: 53948

The dashed part of the orbit path shows where the satellite is in the earth's shadow,  

DLR